Temp
55 54 56 57 58 59 58 57 54 51 53 59 55 58 59 59 60 61 61 60 61 61 63 64 64 65 65 66 66 67 67 67 66 66 67 66 66 67
55 54 55 57 58 58 57 58 57 55 51 58 59 55 57 57 58 59 59 56 58 60 61 60 61 61 62 63 64 64 64 64 65 66 66 66 66 67
54 52 50 51 51 54 56 57 56 57 53 57 59 61 55 57 59 57 57 58 59 58 59 60 59 59 60 60 61 62 62 63 65 65 66 66 66 66
51 50 50 51 49 50 50 50 53 56 55 53 58 58 57 59 59 58 59 58 58 58 58 58 58 58 59 59 59 59 59 60 61 62 63 64 65 65
51 50 49 50 49 50 51 51 51 52 53 54 55 57 57 56 57 56 56 57 58 55 57 58 58 57 57 57 57 57 56 56 57 57 58 59 60 62
50 49 49 49 48 48 48 49 51 51 51 51 54 56 56 57 56 56 55 54 56 56 56 56 56 56 56 56 55 54 53 54 56 56 56 55 55 57
49 49 49 48 47 48 47 47 48 48 49 50 53 54 54 52 53 54 53 53 52 54 55 55 56 56 55 54 53 52 52 53 54 55 55 55 55 55
47 49 49 46 47 48 48 48 48 47 47 49 50 52 54 54 55 53 50 49 49 52 54 53 52 50 49 50 51 51 52 52 52 53 53 53 53 54
48 47 47 48 46 45 47 48 48 49 47 48 49 52 53 54 53 51 50 51 51 50 51 49 47 44 46 48 50 50 51 51 51 51 51 51 51 52
47 47 46 45 44 45 45 44 44 43 43 44 43 44 44 45 47 50 50 49 47 46 48 45 44 42 43 44 49 49 50 50 51 51 51 50 50 50
44 45 45 44 45 46 44 42 41 41 43 43 43 43 43 43 43 44 45 45 45 45 44 45 41 39 39 39 42 47 49 49 50 50 49 49 49 49
39 41 45 44 45 46 42 41 39 39 39 39 39 39 39 39 40 39 40 43 39 37 42 39 37 37 34 37 37 40 43 47 48 48 48 48 48 47
38 37 39 44 45 45 45 40 40 40 39 37 37 37 37 36 35 36 36 37 35 35 39 38 35 35 35 34 35 36 38 39 40 42 46 47 47 46
37 36 38 43 44 44 43 44 43 40 37 36 34 34 33 33 34 34 34 35 35 34 36 38 34 36 34 33 33 34 35 36 37 36 38 42 44 45
37 38 40 42 42 40 42 42 42 37 35 34 33 32 32 32 33 34 34 34 34 33 34 33 34 34 34 34 33 33 33 33 34 35 36 37 37 38
40 38 39 38 38 36 35 34 33 33 33 32 31 29 27 32 31 31 30 30 31 31 33 33 33 33 33 33 34 32 32 31 32 33 33 34 34 35
36 33 31 30 29 29 29 30 30 30 28 27 26 24 26 24 24 20 18 18 19 18 21 26 32 34 32 32 31 31 30 29 26 28 29 26 28 31
34 32 31 31 29 29 29 28 29 30 27 27 25 24 21 19 17 16 17 14 15 15 14 15 15 20 24 31 33 25 22 20 20 25 25 20 23 28
33 32 31 31 31 29 28 27 26 27 26 24 21 19 18 19 16 15 15 15 16 14 14 13 9 8 8 21 27 33 18 20 21 22 24 23 22 25
35 32 32 32 31 29 28 26 27 26 24 22 20 16 13 15 11 11 13 10 11 9 11 12 16 12 7 15 25 22 32 18 19 18 18 23 25 33
33 32 32 32 31 30 29 27 26 23 19 16 16 13 10 13 10 11 16 23 18 9 9 9 12 23 21 15 14 18 22 31 28 19 17 20 21 22
34 32 32 31 31 29 28 26 25 24 17 17 15 14 11 13 13 12 15 11 10 8 7 7 11 8 8 10 8 10 18 23 28 32 33 28 17 12
32 32 31 30 30 28 27 26 25 22 19 18 16 15 14 12 15 16 14 13 10 7 9 10 10 11 11 9 9 9 12 17 21 21 24 33 34 34
MSLP
1011.58 1011.40 1011.06 1010.46 1010.13 1009.89 1009.64 1009.48 1009.17 1008.22 1007.58 1007.54 1007.60 1007.23 1007.14 1006.99 1006.88 1006.96 1006.94 1006.81 1006.63 1006.54 1006.50 1006.45 1006.42 1006.38 1006.44 1006.58 1006.76 1006.87 1007.17 1007.48 1007.96 1008.34 1008.83 1009.23 1009.59 1010.00
1011.15 1011.01 1010.57 1010.08 1009.61 1009.26 1008.98 1008.80 1008.60 1008.16 1006.97 1007.24 1006.97 1006.83 1006.47 1006.41 1006.22 1006.19 1006.15 1006.08 1006.04 1005.85 1005.64 1005.58 1005.59 1005.56 1005.58 1005.67 1005.84 1005.97 1006.22 1006.55 1007.03 1007.48 1007.92 1008.48 1008.67 1009.03
1010.81 1010.71 1010.50 1010.37 1009.92 1009.35 1008.76 1008.30 1007.85 1007.68 1006.74 1006.33 1006.35 1005.94 1005.96 1005.75 1005.56 1005.47 1005.42 1005.38 1005.28 1005.09 1004.88 1004.72 1004.65 1004.68 1004.70 1004.77 1004.96 1005.09 1005.31 1005.57 1006.03 1006.43 1006.74 1007.35 1007.78 1008.07
1010.27 1010.30 1010.16 1009.97 1009.70 1009.42 1008.96 1008.42 1008.03 1007.48 1006.37 1005.41 1005.47 1005.26 1004.92 1004.96 1004.79 1004.72 1004.66 1004.55 1004.54 1004.22 1003.96 1003.83 1003.82 1003.78 1003.86 1003.94 1004.13 1004.32 1004.47 1004.72 1005.09 1005.57 1005.89 1006.28 1006.64 1006.97
1009.82 1009.78 1009.59 1009.48 1009.17 1008.88 1008.60 1008.14 1007.72 1007.30 1006.71 1005.95 1004.86 1004.66 1004.55 1004.34 1004.27 1004.09 1003.82 1003.78 1003.72 1003.28 1003.13 1003.08 1002.95 1002.87 1003.06 1003.24 1003.48 1003.79 1003.91 1004.20 1004.53 1004.88 1005.22 1005.52 1004.92 1005.98
1009.17 1009.22 1009.13 1008.98 1008.72 1008.53 1008.29 1007.84 1007.40 1006.88 1006.33 1005.63 1004.72 1004.00 1003.83 1003.68 1003.82 1003.56 1003.51 1003.37 1003.23 1002.92 1002.63 1002.49 1002.37 1002.24 1002.32 1002.60 1002.85 1003.09 1003.47 1003.72 1004.04 1004.33 1004.59 1004.86 1005.14 1005.26
1008.54 1008.55 1008.48 1008.39 1008.32 1008.26 1008.11 1007.42 1007.00 1006.33 1005.60 1004.85 1003.94 1003.24 1003.18 1003.12 1003.06 1003.16 1003.24 1003.06 1002.88 1002.42 1002.16 1002.09 1002.13 1002.11 1002.07 1002.04 1002.37 1002.37 1002.67 1003.11 1003.53 1003.87 1004.01 1004.23 1004.61 1004.87
1007.74 1007.77 1007.82 1007.92 1007.84 1007.61 1007.30 1006.85 1006.44 1005.78 1005.04 1004.32 1003.80 1002.79 1002.34 1002.26 1002.40 1002.71 1002.81 1003.07 1002.85 1001.91 1002.05 1002.10 1002.14 1002.19 1002.50 1002.16 1002.23 1002.28 1002.59 1002.72 1003.09 1003.46 1003.60 1003.83 1004.00 1004.15
1006.74 1007.01 1007.06 1007.17 1007.20 1007.06 1006.46 1005.96 1005.35 1004.73 1004.44 1004.09 1003.40 1002.70 1002.08 1001.87 1002.02 1002.25 1002.30 1002.53 1002.37 1002.24 1002.08 1002.15 1002.51 1002.75 1003.07 1002.95 1002.57 1002.51 1002.57 1002.74 1002.84 1003.22 1003.35 1003.49 1003.43 1003.27
1005.82 1006.00 1006.32 1006.34 1006.52 1006.42 1005.81 1005.28 1004.74 1004.49 1004.29 1004.01 1003.62 1003.12 1002.73 1002.33 1002.03 1001.78 1001.91 1002.05 1002.21 1002.34 1002.02 1002.52 1002.94 1003.52 1003.69 1003.50 1003.16 1002.84 1002.64 1002.85 1002.85 1002.85 1002.78 1002.94 1002.79 1002.51
1004.99 1005.13 1005.45 1005.52 1005.64 1005.71 1005.32 1004.86 1004.47 1004.19 1004.18 1004.05 1003.79 1003.50 1003.14 1002.93 1002.63 1002.25 1002.08 1002.25 1002.33 1002.30 1002.14 1002.18 1003.09 1003.73 1003.94 1004.00 1003.58 1003.27 1002.97 1003.01 1002.99 1003.17 1003.11 1003.45 1003.31 1002.87
1004.48 1004.53 1004.63 1004.82 1004.93 1004.97 1004.87 1004.61 1004.31 1004.07 1004.08 1003.97 1003.84 1003.56 1003.51 1003.34 1003.02 1002.59 1002.41 1002.24 1002.22 1002.51 1002.02 1002.36 1003.06 1003.47 1004.37 1004.46 1004.31 1004.08 1003.82 1003.82 1003.88 1003.65 1003.62 1003.85 1003.82 1003.70
1003.65 1003.85 1004.00 1004.12 1004.24 1004.32 1004.29 1004.31 1004.12 1004.12 1004.10 1004.12 1003.96 1003.80 1003.76 1003.64 1003.38 1003.01 1002.72 1002.39 1002.20 1002.12 1002.26 1002.42 1002.97 1003.35 1004.01 1004.84 1004.93 1004.74 1004.66 1004.61 1004.60 1004.51 1004.43 1004.44 1004.40 1004.33
1002.75 1002.96 1003.25 1003.40 1003.65 1003.78 1003.93 1003.83 1003.88 1004.00 1004.20 1004.21 1004.21 1004.27 1004.23 1004.24 1003.97 1003.61 1003.20 1002.79 1002.54 1002.50 1002.52 1002.49 1002.72 1002.82 1003.58 1004.71 1005.22 1005.48 1005.53 1005.51 1005.33 1005.42 1005.49 1005.40 1005.51 1005.44
1001.95 1002.17 1002.54 1002.85 1003.21 1003.45 1003.61 1003.75 1003.79 1004.04 1004.20 1004.42 1004.48 1004.56 1004.54 1004.56 1004.26 1003.83 1003.57 1003.46 1003.31 1003.26 1003.06 1002.94 1002.88 1003.05 1003.33 1004.14 1005.03 1005.79 1006.07 1006.40 1006.24 1006.28 1006.40 1006.41 1006.52 1006.60
1001.40 1001.85 1002.15 1002.64 1003.18 1003.41 1003.69 1003.92 1004.10 1004.03 1004.22 1004.36 1004.69 1004.79 1004.84 1004.66 1004.71 1004.72 1004.49 1004.47 1004.27 1004.32 1004.12 1003.65 1003.40 1003.50 1004.36 1004.79 1004.99 1005.97 1006.44 1006.87 1007.08 1007.07 1007.08 1007.21 1007.29 1007.40
1001.14 1001.83 1002.19 1002.63 1003.13 1003.52 1003.81 1003.97 1004.07 1004.10 1004.36 1004.45 1004.97 1004.93 1005.05 1005.14 1005.36 1005.65 1005.54 1005.38 1005.74 1006.21 1005.79 1005.23 1004.74 1004.63 1005.14 1005.51 1006.20 1006.88 1007.32 1007.66 1007.87 1007.82 1007.78 1007.98 1007.89 1007.88
1000.58 1001.22 1001.77 1002.15 1002.51 1002.99 1003.56 1003.94 1004.06 1004.25 1004.60 1004.66 1005.24 1005.25 1005.44 1005.67 1005.99 1006.07 1006.21 1006.54 1006.91 1007.25 1007.13 1006.76 1006.46 1006.18 1006.35 1006.86 1006.96 1007.69 1008.08 1008.41 1008.52 1008.28 1008.36 1008.61 1008.50 1008.32
999.70 1000.35 1000.99 1001.49 1001.99 1002.46 1003.11 1003.72 1004.07 1004.41 1004.77 1005.03 1005.71 1005.96 1005.99 1006.05 1006.61 1006.88 1007.01 1007.32 1007.81 1007.84 1007.81 1007.55 1007.46 1007.70 1008.05 1008.16 1008.16 1008.02 1008.28 1008.75 1008.77 1008.76 1008.85 1008.92 1008.89 1008.61
999.04 999.63 1000.19 1000.83 1001.48 1002.04 1002.83 1003.49 1003.95 1004.48 1004.95 1005.45 1006.10 1006.34 1006.60 1006.56 1007.18 1007.82 1007.72 1008.08 1008.56 1008.73 1008.69 1008.42 1008.42 1008.61 1008.47 1008.24 1008.41 1008.76 1008.41 1008.83 1009.01 1009.16 1009.19 1009.12 1008.88 1008.55
998.52 999.15 999.60 1000.36 1001.11 1001.65 1002.45 1003.21 1003.84 1004.51 1005.00 1005.56 1006.19 1006.59 1006.91 1007.03 1007.66 1007.99 1008.30 1008.29 1008.59 1009.25 1009.39 1009.35 1009.19 1008.91 1008.80 1008.76 1009.17 1009.40 1009.01 1008.67 1008.77 1009.08 1009.33 1009.36 1009.13 1008.79
997.79 998.53 999.20 1000.02 1000.72 1001.36 1002.20 1003.08 1003.93 1004.61 1005.13 1005.68 1006.28 1006.80 1007.11 1007.23 1007.58 1007.97 1008.42 1009.12 1009.41 1009.57 1009.72 1009.50 1009.20 1009.17 1009.62 1010.11 1010.36 1010.19 1009.66 1009.15 1008.73 1008.52 1008.53 1008.67 1008.78 1008.73
997.38 998.08 998.85 999.74 1000.48 1001.23 1002.03 1002.91 1003.79 1004.50 1005.18 1005.72 1006.32 1006.81 1007.20 1007.63 1007.77 1008.02 1008.47 1008.93 1009.39 1009.80 1009.91 1010.15 1010.01 1010.02 1010.44 1010.63 1010.76 1010.83 1010.46 1009.92 1009.47 1009.01 1008.57 1008.12 1008.03 1007.96
Wind_Speed
7 8 9 8 7 8 8 9 10 11 9 7 4 7 7 6 8 8 9 12 16 18 22 24 24 24 22 21 22 24 23 20 20 16 18 17 16 18
7 8 9 7 8 8 7 8 9 11 13 7 6 5 6 5 8 10 9 12 14 19 21 21 22 22 22 22 21 21 21 19 20 20 20 20 19 19
10 6 10 8 7 8 7 8 9 9 13 9 9 9 7 10 8 7 8 9 8 15 20 21 20 21 21 21 20 19 19 19 20 22 22 21 21 21
8 8 12 8 10 8 7 9 10 11 11 15 10 9 10 8 9 9 7 6 7 12 16 18 19 19 19 18 18 17 16 16 16 19 20 21 19 16
12 8 9 9 12 10 12 11 10 9 11 13 10 5 6 5 8 6 8 8 7 13 15 17 18 18 17 15 14 14 14 13 14 13 13 15 16 15
9 8 9 10 10 10 9 11 11 13 12 11 13 10 8 7 6 7 6 4 6 4 9 11 10 13 13 12 13 11 11 11 11 13 14 12 11 11
8 8 9 10 12 14 10 12 11 10 9 11 11 10 8 4 6 3 6 4 4 4 4 3 4 4 4 6 7 10 9 10 11 13 14 13 13 15
9 9 9 10 13 17 20 20 16 12 12 10 10 8 9 6 5 6 4 2 3 1 3 4 1 2 3 3 4 4 3 3 4 8 9 11 13 15
9 8 8 9 9 10 15 18 17 17 9 9 11 11 10 7 5 5 5 4 3 2 1 2 2 3 3 3 4 4 4 3 4 4 6 10 14 18
9 8 8 9 6 10 10 10 7 3 3 4 5 5 4 6 3 0 1 1 1 2 1 3 2 2 1 3 8 5 3 2 2 1 1 3 5 12
8 7 8 7 8 13 9 8 5 4 3 4 6 7 8 9 6 2 3 3 3 4 2 4 2 2 2 3 4 14 10 9 9 8 11 9 11 17
5 6 13 9 9 11 6 6 6 3 3 3 2 4 6 6 7 3 3 5 3 1 3 3 3 3 2 2 4 5 4 16 17 16 15 13 11 6
6 5 5 12 11 9 7 4 4 1 1 1 2 3 4 5 5 5 4 2 2 1 1 3 2 3 3 2 2 4 4 4 5 8 18 19 17 12
7 5 5 12 10 8 6 6 4 3 1 1 2 2 2 3 4 4 6 6 6 5 3 3 2 3 3 2 2 2 4 5 4 5 5 10 16 18
4 8 11 12 9 3 4 4 5 3 3 2 2 1 0 2 4 3 4 4 8 9 8 4 1 2 3 3 4 2 2 4 4 4 5 5 5 4
9 6 8 8 6 4 2 1 3 2 3 2 1 1 2 1 2 3 2 4 4 5 9 11 8 4 3 5 4 3 3 3 2 3 2 3 4 4
7 4 3 3 4 3 2 2 1 1 2 2 1 2 1 1 2 2 2 3 4 2 4 6 9 13 10 5 6 5 4 3 3 2 4 2 3 3
4 5 6 5 6 5 4 3 2 2 1 3 1 1 2 2 2 3 4 4 4 3 3 3 4 4 5 9 11 4 3 2 2 3 3 2 2 2
4 7 7 7 6 5 5 3 3 2 2 3 2 1 2 3 4 2 3 3 3 3 3 2 4 3 4 3 1 11 4 2 2 3 3 2 1 3
6 7 7 6 6 6 5 3 3 4 3 3 3 2 1 3 3 3 3 4 3 2 3 3 5 3 4 5 4 0 5 3 2 1 2 2 3 8
8 7 6 6 6 6 5 5 5 4 3 3 3 3 2 3 3 3 2 7 7 2 3 2 1 5 3 3 4 3 3 6 3 3 2 0 2 1
8 8 6 6 6 6 6 6 5 5 4 3 3 3 2 2 4 4 4 3 2 2 1 2 3 3 4 4 1 1 3 3 5 5 5 6 4 1
7 7 7 7 6 6 7 7 6 5 4 4 4 4 3 3 2 4 4 4 4 3 1 2 3 3 2 2 3 1 2 2 2 3 3 5 8 12
Wind_Direction
273 275 267 266 263 256 254 253 261 276 267 261 248 220 231 236 235 239 240 243 247 247 245 249 250 249 247 244 246 247 240 235 230 237 240 231 227 233
275 275 280 285 271 257 255 258 256 266 276 266 260 238 246 236 237 240 245 241 247 252 255 247 245 244 244 241 241 242 237 227 220 223 225 233 235 236
279 299 291 300 289 296 296 276 255 258 270 269 264 251 232 242 246 241 242 248 251 245 251 254 246 243 244 245 243 236 228 225 230 222 221 227 236 240
273 276 284 291 291 288 291 295 287 291 272 265 266 258 223 235 251 256 255 234 242 249 248 250 250 246 242 236 232 228 226 224 220 220 225 225 222 228
270 264 273 281 287 290 289 285 287 285 280 284 271 250 223 220 248 250 258 267 258 244 251 252 247 238 236 230 225 226 220 212 205 209 213 222 225 228
254 256 265 268 274 282 283 284 284 276 272 272 270 253 238 235 224 251 266 237 254 235 243 249 247 233 226 222 214 204 207 211 217 218 221 228 228 231
244 249 260 267 275 279 280 276 271 267 268 268 267 242 237 209 230 227 236 260 264 239 244 231 236 231 230 227 242 206 210 222 224 232 232 231 234 237
239 249 257 266 271 274 278 274 269 269 269 264 266 264 237 219 213 225 224 235 264 295 228 247 283 74 17 354 137 122 155 183 248 256 254 247 245 240
224 239 260 265 262 278 284 283 279 269 270 282 268 264 257 227 205 225 217 214 222 263 143 255 15 85 30 7 72 86 113 153 171 226 247 261 252 243
220 219 243 257 249 284 288 287 290 312 332 319 300 315 332 336 317 295 240 252 338 247 174 222 97 71 45 26 19 50 55 213 193 147 326 330 299 255
212 211 224 236 253 288 290 287 284 265 272 343 4 359 354 355 346 299 230 189 234 231 208 140 136 97 28 13 359 38 66 73 76 92 88 72 77 83
213 219 220 228 253 280 286 283 287 295 315 324 341 360 5 354 4 5 314 232 175 320 203 126 135 139 83 9 16 13 29 57 67 69 71 67 59 72
215 215 212 225 244 262 268 258 252 232 354 7 38 19 15 10 3 8 1 275 173 169 47 112 153 125 85 123 44 15 26 28 45 51 59 58 61 65
210 202 205 213 226 242 256 243 202 168 199 123 69 41 22 355 357 15 30 44 49 69 12 40 138 135 123 111 129 37 33 26 38 48 40 59 58 65
186 201 200 200 196 193 247 257 225 210 197 198 171 156 42 318 335 6 6 14 56 41 27 25 59 85 73 94 128 129 108 25 31 52 43 48 52 34
194 198 184 172 182 189 194 265 257 232 218 176 191 125 319 5 38 352 26 358 32 28 27 34 45 47 70 49 83 98 59 96 24 40 61 53 41 35
149 135 138 141 162 183 202 220 218 177 177 134 179 134 100 61 45 360 22 25 66 31 2 12 39 67 65 59 76 66 73 73 12 19 46 24 24 31
152 171 185 185 180 177 184 196 184 167 140 117 98 81 100 88 71 37 48 60 81 21 29 351 354 36 33 50 60 84 32 62 354 34 51 76 348 342
194 183 186 187 186 169 164 162 166 146 120 92 89 98 109 76 100 78 84 77 66 48 21 7 33 83 80 106 79 48 125 7 12 27 32 44 238 286
186 184 182 175 173 164 162 155 137 131 114 116 116 95 76 115 95 72 76 105 87 44 37 23 48 51 124 171 141 63 41 101 88 38 344 332 277 293
179 182 164 161 164 150 147 141 143 143 131 124 125 117 118 109 91 81 109 116 108 70 68 45 327 82 47 34 45 4 331 15 116 157 211 134 286 316
177 170 153 145 152 145 140 138 143 138 125 118 125 124 113 114 115 115 103 101 72 112 136 312 2 45 54 89 149 312 320 329 333 320 238 209 156 279
167 158 147 141 138 135 137 139 139 132 134 126 130 127 128 99 102 101 105 104 112 76 54 24 13 36 59 92 114 301 298 288 307 328 308 279 260 261